N753OZ K2W6-KVAY

Flight info

Callsign N753OZ
Flight time N/A
Altitude 15000
Route SHLBK T315 CHOPS T224 ENO V213 ENZEW
Aircraft CL30/M-SDFGRW/S

Departure

Time N/A
Airport K2W6

Arrival

Time 2026-04-13 06:18
Airport South Jersey Regional Airport (KVAY)
Time Latitude Longitude Altitude Speed Heading
2026-04-13 05:42 38.31480 -76.55686 138 ft 0 kts 352°
2026-04-13 05:48 38.31510 -76.55688 138 ft 8 kts 358°
2026-04-13 05:48 38.31562 -76.55732 138 ft 12 kts 348°
2026-04-13 05:48 38.31589 -76.55656 139 ft 12 kts 101°
2026-04-13 05:49 38.31569 -76.55540 138 ft 13 kts 103°
2026-04-13 05:49 38.31549 -76.55425 138 ft 13 kts 103°
2026-04-13 05:49 38.31522 -76.55313 137 ft 13 kts 113°
2026-04-13 05:49 38.31499 -76.55192 135 ft 14 kts 103°
2026-04-13 05:50 38.31475 -76.55057 133 ft 16 kts 102°
2026-04-13 05:50 38.31451 -76.54910 131 ft 16 kts 102°
2026-04-13 05:50 38.31425 -76.54760 128 ft 18 kts 103°
2026-04-13 05:50 38.31396 -76.54589 124 ft 20 kts 102°
2026-04-13 05:51 38.31365 -76.54413 119 ft 17 kts 103°
2026-04-13 05:51 38.31373 -76.54328 117 ft 5 kts 30°
2026-04-13 05:51 38.31414 -76.54325 117 ft 10 kts 313°
2026-04-13 05:51 38.31474 -76.54671 125 ft 87 kts 285°
2026-04-13 05:52 38.31673 -76.55827 346 ft 168 kts 280°
2026-04-13 05:52 38.31935 -76.57484 1135 ft 215 kts 281°
2026-04-13 05:52 38.31645 -76.59308 3014 ft 225 kts 243°
2026-04-13 05:52 38.30622 -76.60448 5228 ft 212 kts 209°
2026-04-13 05:53 38.29151 -76.60593 6607 ft 238 kts 173°
2026-04-13 05:53 38.27700 -76.59387 7825 ft 268 kts 133°
2026-04-13 05:53 38.27030 -76.57172 9229 ft 278 kts 94°
2026-04-13 05:53 38.27441 -76.54870 10634 ft 275 kts 58°
2026-04-13 05:54 38.28700 -76.52969 11919 ft 278 kts 46°
2026-04-13 05:54 38.29981 -76.51110 13076 ft 286 kts 46°
2026-04-13 05:54 38.31359 -76.49136 13669 ft 315 kts 46°
2026-04-13 05:54 38.32828 -76.47041 14590 ft 328 kts 45°
2026-04-13 05:55 38.34420 -76.44781 14991 ft 354 kts 45°
2026-04-13 05:55 38.36086 -76.42417 15002 ft 363 kts 45°
2026-04-13 05:55 38.37769 -76.40030 15001 ft 369 kts 45°
2026-04-13 05:55 38.39509 -76.37558 15000 ft 372 kts 45°
2026-04-13 05:56 38.41243 -76.35097 14999 ft 374 kts 45°
2026-04-13 05:56 38.43023 -76.32568 15001 ft 376 kts 45°
2026-04-13 05:56 38.44910 -76.30147 14998 ft 377 kts 40°
2026-04-13 05:56 38.46856 -76.27818 14999 ft 378 kts 40°
2026-04-13 05:57 38.48824 -76.25444 14999 ft 380 kts 40°
2026-04-13 05:57 38.50772 -76.23085 15002 ft 381 kts 40°
2026-04-13 05:57 38.52749 -76.20689 15000 ft 382 kts 40°
2026-04-13 05:57 38.54708 -76.18312 14999 ft 384 kts 40°
2026-04-13 05:58 38.56662 -76.15938 14986 ft 385 kts 40°
2026-04-13 05:58 38.58602 -76.13578 14973 ft 386 kts 40°
2026-04-13 05:58 38.60553 -76.11204 14972 ft 387 kts 40°
2026-04-13 05:58 38.62541 -76.08830 14966 ft 386 kts 37°
2026-04-13 05:59 38.64716 -76.06715 14973 ft 385 kts 33°
2026-04-13 05:59 38.66886 -76.04681 14958 ft 386 kts 33°
2026-04-13 05:59 38.69087 -76.02622 14954 ft 386 kts 33°
2026-04-13 05:59 38.71249 -76.00600 14954 ft 387 kts 33°
2026-04-13 06:00 38.73410 -75.98578 14954 ft 387 kts 33°
2026-04-13 06:00 38.75579 -75.96547 14953 ft 387 kts 33°
2026-04-13 06:00 38.77759 -75.94503 14954 ft 388 kts 33°
2026-04-13 06:00 38.79930 -75.92467 14954 ft 389 kts 33°
2026-04-13 06:01 38.82110 -75.90420 14955 ft 389 kts 33°
2026-04-13 06:01 38.84299 -75.88364 14955 ft 390 kts 33°
2026-04-13 06:01 38.86479 -75.86314 14955 ft 390 kts 33°
2026-04-13 06:01 38.88658 -75.84264 14955 ft 391 kts 33°
2026-04-13 06:02 38.90882 -75.82180 14955 ft 391 kts 32°
2026-04-13 06:02 38.93077 -75.80121 14955 ft 391 kts 32°
2026-04-13 06:02 38.95278 -75.78047 14955 ft 392 kts 33°
2026-04-13 06:02 38.97511 -75.75937 14955 ft 392 kts 33°
2026-04-13 06:03 38.99731 -75.73838 14960 ft 392 kts 33°
2026-04-13 06:03 39.01976 -75.71712 14964 ft 392 kts 33°
2026-04-13 06:03 39.04219 -75.69584 14965 ft 392 kts 33°
2026-04-13 06:03 39.06479 -75.67441 14959 ft 393 kts 33°
2026-04-13 06:04 39.08697 -75.65340 14956 ft 393 kts 33°
2026-04-13 06:04 39.10912 -75.63239 14963 ft 393 kts 33°
2026-04-13 06:04 39.13160 -75.61106 14965 ft 393 kts 33°
2026-04-13 06:04 39.15409 -75.58971 14966 ft 393 kts 33°
2026-04-13 06:05 39.17663 -75.56829 14929 ft 395 kts 33°
2026-04-13 06:05 39.19897 -75.54703 14563 ft 391 kts 33°
2026-04-13 06:05 39.22067 -75.52638 14184 ft 382 kts 33°
2026-04-13 06:05 39.24200 -75.50690 13809 ft 374 kts 31°
2026-04-13 06:06 39.26340 -75.48788 13429 ft 367 kts 31°
2026-04-13 06:06 39.28480 -75.46889 13044 ft 361 kts 31°
2026-04-13 06:06 39.30542 -75.45059 12667 ft 355 kts 31°
2026-04-13 06:06 39.32605 -75.43227 12285 ft 349 kts 31°
2026-04-13 06:07 39.34620 -75.41437 11905 ft 344 kts 31°
2026-04-13 06:07 39.36592 -75.39683 11529 ft 339 kts 31°
2026-04-13 06:07 39.38547 -75.37945 11150 ft 334 kts 31°
2026-04-13 06:07 39.40477 -75.36227 10771 ft 329 kts 31°
2026-04-13 06:08 39.42379 -75.34534 10389 ft 324 kts 32°
2026-04-13 06:08 39.44255 -75.32862 10013 ft 318 kts 32°
2026-04-13 06:08 39.46092 -75.31222 9814 ft 307 kts 32°
2026-04-13 06:08 39.47859 -75.29645 9593 ft 298 kts 31°
2026-04-13 06:09 39.49571 -75.28117 9228 ft 296 kts 31°
2026-04-13 06:09 39.51298 -75.26537 8836 ft 294 kts 32°
2026-04-13 06:09 39.53011 -75.24938 8443 ft 291 kts 32°
2026-04-13 06:09 39.54653 -75.23399 8062 ft 288 kts 32°
2026-04-13 06:10 39.56294 -75.21867 7677 ft 285 kts 32°
2026-04-13 06:10 39.57931 -75.20338 7288 ft 282 kts 32°
2026-04-13 06:10 39.59558 -75.18814 6896 ft 278 kts 31°
2026-04-13 06:10 39.61127 -75.17345 6514 ft 275 kts 31°
2026-04-13 06:11 39.62708 -75.15861 6123 ft 271 kts 31°
2026-04-13 06:11 39.64256 -75.14407 5736 ft 268 kts 31°
2026-04-13 06:11 39.65800 -75.12957 5345 ft 264 kts 31°
2026-04-13 06:11 39.67312 -75.11539 4959 ft 262 kts 30°
2026-04-13 06:12 39.68849 -75.10232 4575 ft 258 kts 27°
2026-04-13 06:12 39.70355 -75.08977 4199 ft 256 kts 28°
2026-04-13 06:12 39.71870 -75.07716 3819 ft 254 kts 28°
2026-04-13 06:12 39.73373 -75.06467 3439 ft 253 kts 30°
2026-04-13 06:13 39.74872 -75.05221 3059 ft 251 kts 31°
2026-04-13 06:13 39.76349 -75.03989 2683 ft 250 kts 32°
2026-04-13 06:13 39.77890 -75.02889 2288 ft 248 kts 14°
2026-04-13 06:13 39.79565 -75.02588 2024 ft 230 kts
2026-04-13 06:14 39.81139 -75.02424 1967 ft 220 kts 359°
2026-04-13 06:14 39.84171 -75.02161 1967 ft 210 kts 358°
2026-04-13 06:14 39.85650 -75.02045 1967 ft 207 kts 357°
2026-04-13 06:15 39.87103 -75.01937 1968 ft 203 kts 357°
2026-04-13 06:15 39.88509 -75.01721 1955 ft 207 kts 15°
2026-04-13 06:15 39.89563 -75.00412 1981 ft 217 kts 58°
2026-04-13 06:15 39.90193 -74.98566 1973 ft 217 kts 63°
2026-04-13 06:16 39.90774 -74.96703 1775 ft 217 kts 64°
2026-04-13 06:16 39.91322 -74.94863 1629 ft 206 kts 64°
2026-04-13 06:16 39.91830 -74.93131 1244 ft 198 kts 65°
2026-04-13 06:16 39.92299 -74.91529 1046 ft 172 kts 65°
2026-04-13 06:17 39.92697 -74.90160 839 ft 147 kts 65°
2026-04-13 06:17 39.93036 -74.88985 638 ft 127 kts 65°
2026-04-13 06:17 39.93350 -74.87894 478 ft 126 kts 67°
2026-04-13 06:17 39.93654 -74.86820 314 ft 122 kts 68°
2026-04-13 06:18 39.93950 -74.85780 140 ft 117 kts 69°
2026-04-13 06:18 39.94213 -74.84843 41 ft 97 kts 69°
2026-04-13 06:18 39.94320 -74.84463 44 ft 3 kts 109°
2026-04-13 06:18 39.94308 -74.84448 44 ft 6 kts 146°
2026-04-13 06:19 39.94241 -74.84413 45 ft 9 kts 164°
2026-04-13 06:19 39.94223 -74.84405 45 ft 0 kts 160°
2026-04-13 06:19 39.94197 -74.84393 46 ft 4 kts 159°
2026-04-13 06:19 39.94146 -74.84368 46 ft 10 kts 160°
2026-04-13 06:20 39.94075 -74.84347 47 ft 10 kts 206°
2026-04-13 06:20 39.94051 -74.84357 47 ft 0 kts 156°